Regional Weather Roundup
Issued by NWS

Home | Current Version | Previous Version | Graphics & Text | Print | Product List | Glossary Off
Versions: 1 2 3 4 5 6 7 8 9 10 11 12 13 14 15 16 17 18 19 20 21 22 23 24 25 26 27 28 29 30 31 32 33 34 35 36 37 38 39 40 41 42 43 44 45 46 47 48 49 50

000
ASUS43 KMKX 012221
RWRWI

WISCONSIN REGIONAL WEATHER ROUNDUP
NATIONAL WEATHER SERVICE MILWAUKEE/SULLIVAN WI
400 PM CST SUN FEB 01 2015

NOTE: "FAIR" INDICATES FEW OR NO CLOUDS BELOW 12,000 FEET WITH NO
SIGNIFICANT WEATHER AND/OR OBSTRUCTIONS TO VISIBILITY.

WIZ001-002-006>008-014>016-023>028-012300-
NORTHWEST WISCONSIN

CITY           SKY/WX    TMP DP  RH WIND       PRES   REMARKS
SUPERIOR ARPT  CLEAR     11  -6  46 NE6       30.31F WCI   2
ASHLAND        CLOUDY    10   1  67 N15       30.28F WCI  -7
HAYWARD        PTCLDY    11   0  61 N13       30.21F WCI  -4
SIREN          MOSUNNY   13   1  59 NE15      30.24S WCI  -3
CUMBERLAND     PTSUNNY   12   0  57 NE15      30.17S WCI  -4
RICE LAKE      PTSUNNY   13   3  64 N16       30.19S WCI  -3
CHETEK         PTSUNNY   15   3  60 N9        30.17S WCI   3
LADYSMITH      MOCLDY    14   1  56 N18       30.16S WCI  -3
EAU CLAIRE     CLOUDY    15  -1  49 NE10      30.15S WCI   2
MENOMONIE      CLOUDY    18   2  50 N13G20    30.17S WCI   4
NEW RICHMOND   PTSUNNY   15   3  60 N17       30.20R WCI  -2
OSCEOLA        MOSUNNY   16   2  54 NE15G23   30.25R WCI   1
$$

WIZ003>005-009-010-017-018-012300-
NORTH CENTRAL WISCONSIN

CITY           SKY/WX    TMP DP  RH WIND       PRES   REMARKS
MANITOWISH WTR MOCLDY     8  -2  62 NE9       30.13F WCI  -5
ARBOR VITAE    CLOUDY    11   1  62 N10G17    30.12F WCI  -2
WOODRUFF       CLOUDY    11   1  62 N10G17    30.12F WCI  -2
RHINELANDER    CLOUDY    10  -2  58 N12G18    30.10F WCI  -5
EAGLE RIVER    CLOUDY     9  -3  57 N15       30.11S WCI  -8
LAND O LAKES   CLOUDY     9   1  68 N10G17    30.13S WCI  -5
PHILLIPS       PTCLDY    10  -1  59 N15G21    30.12F WCI  -6
TOMAHAWK       CLOUDY    11  -1  58 N10       30.11F WCI  -3
MEDFORD        CLOUDY    11  -1  59 NE14G22   30.09R WCI  -5
MERRILL        CLOUDY    13   0  56 NE14G23   30.10S WCI  -2
$$

WIZ029-030-035-036-043>047-012300-
CENTRAL WISCONSIN

CITY           SKY/WX    TMP DP  RH WIND       PRES   REMARKS
WAUSAU         CLOUDY    13   1  59 NE14G21   30.08S WCI  -2
MOSINEE        PTCLDY    12   1  62 NE15G23   30.09S WCI  -4
MARSHFIELD     CLOUDY    14   1  56 NE18G25   30.08S WCI  -3
STEVENS POINT  CLOUDY    11  -1  57 NE16      30.09S WCI  -6
WAUPACA        CLOUDY    13  -3  48 N14G23    30.09F WCI  -3
WAUTOMA        CLOUDY    10  -1  61 NE16G25   30.07S WCI  -7
WISC RAPIDS    CLOUDY    13  -2  51 NE16G26   30.09S WCI  -3
CAMP DOUGLAS   FLURRIES  12   9  85 NE8       30.08R WCI   1
$$

WIZ011>013-019>022-031-037>040-048>050-012300-
NORTHEAST WISCONSIN

CITY           SKY/WX    TMP DP  RH WIND       PRES   REMARKS
ANTIGO         CLOUDY    10   2  70 NE15      30.07F WCI  -7
SHAWANO        CLOUDY    13   0  55 NE12G23   30.12F WCI   0
OCONTO         CLOUDY     9  -1  64 NE13      30.15F WCI  -7
STURGEON BAY   CLOUDY     7  -2  66 N15       30.12F WCI -11
GREEN BAY      CLOUDY     9  -2  61 NE23G39   30.10F WCI -11
MANITOWOC      SNOW      16  14  92 NE17G28   30.03F VSB 1/2 WCI   0
APPLETON       LGT SNOW   9   0  66 NE23G33   30.06F WCI -12
CLINTONVILLE   CLOUDY    12   0  57 NE16      30.11S WCI  -4
OSHKOSH        SNOW       8   3  80 N29       30.05S VSB 1/2 WCI -15
$$

WIZ032>034-041-042-053>061-012300-
SOUTHWEST WISCONSIN

CITY           SKY/WX    TMP DP  RH WIND       PRES   REMARKS
LA CROSSE      LGT SNOW  16   7  67 N12       30.12R WCI   3
SPARTA         LGT SNOW  14   8  77 N10       30.10S WCI   2
VIROQUA        CLOUDY    12   8  82 NE20G26   30.02R WCI  -6
BOSCOBEL       LGT SNOW  15   7  70 NE15G22   30.04R VSB 1   WCI   0
PRAIRIE DU CHI CLOUDY    16   8  69 N16G24    30.03R HAZE    WCI   1
PLATTEVILLE    CLOUDY    14  11  86 N28G38    29.92R VSB 1/2 WCI  -6
$$

WIZ056-057-062-063-064-067-068-012300-
SOUTH CENTRAL WISCONSIN

CITY           SKY/WX    TMP DP  RH WIND       PRES   REMARKS
REEDSBURG      LGT SNOW  10   6  81 N15G21    30.03R WCI  -6
BARABOO/DELLS  LGT SNOW  10   5  81 N15G21    30.02R WCI  -7
LONE ROCK      LGT SNOW  14   7  73 NE18G24   30.02R VSB 3/4 WCI  -3
MINERAL POINT  LGT SNOW  16  10  79 N24G33    29.92R VSB 3/4 WCI  -3
MADISON        SNOW      12   7  80 NE25G37   29.96R VSB 1/4 WCI  -8
MIDDLETON      CLOUDY    14   9  81 NE21G32   29.97R VSB 3/4 WCI  -4
WATERTOWN      CLOUDY    11   8  87 N16G25    29.92F WCI  -6
MONROE         SNOW      14  12  92 N29G43    29.85R VSB 1/2 WCI  -7
JANESVILLE     SNOW      16  10  79 N20G29    29.85S VSB 1/2 WCI  -1
$$

WIZ051-052-058>065-066-070>072-012300-
SOUTHEAST WISCONSIN

CITY           SKY/WX    TMP DP  RH WIND       PRES   REMARKS
MILWAUKEE      SNOW      21  17  84 NE28G39   29.88F VSB 1/8 WCI   3
WAUKESHA       SNOW      18  16  93 NE12G35   29.90S VSB 1/2 WCI   5
MILWAUKEE/TIMM LGT SNOW  21  16  79 NE20G36   29.91F VSB 3/4 WCI   6
RACINE         SNOW      21  18  88 NE25G40   29.88R VSB 1/4 WCI   4
BURLINGTON     LGT SNOW  19  17  88 NE22G32   29.84F VSB 3/4 WCI   3
KENOSHA        HVY SNOW  21  18  88 NE24G33   29.85S VSB 1/4 WCI   4
FOND DU LAC    FOG        8   4  83 N28G35    30.04R VSB 1/4 WCI -14
SHEBOYGAN      HVY SNOW  17  14  88 NE26G35   29.98R VSB 1/4 WCI  -2
WEST BEND      SNOW      18  14  86 NE15G26   29.93S VSB 1/2 WCI   3
JUNEAU         SNOW       8   5  85 N25G32    29.96S VSB 1/2 WCI -13
$$

LSZ147-162-012300-
LAKE SUPERIOR

STATION/POSITION TIME  TEMP    WIND        PRES    WAVE
                       AIR SEA DIR/SP/G            HT/PER
                 (UTC) (F)     (DEG/KT/KT) (MB)    (FT/S)
DEVILS ISLAND    2200    9      40/ 10/ 12 1028.2F
PORT WING        2140   12      50/ 12/ 16 1026.4F
SAXON HARBOR     2100   14      30/ 17/ 23 1025.1S
$$

LMZ867-665-643>646-012300-
LAKE MICHIGAN

STATION/POSITION TIME  TEMP    WIND        PRES    WAVE
                       AIR SEA DIR/SP/G            HT/PER
                 (UTC) (F)     (DEG/KT/KT) (MB)    (FT/S)
NORTHPORT PIER   2100    9      20/ 15/ 21 1022.0F
SISTER BAY       2113    9      20/ 13/ 21   N/A
KEWAUNEE LAKESHO 2100   16      30/ 27/ 35 1017.7F
SHEBOYGAN LAKESH 2200   20      30/ 35/ 40 1016.3F
PORT WASHINGTON  2122   22      30/ 26/ 35 1014.9F
MILWAUKEE LAKESH 2200   23      40/ 33/ 39   N/A
KENOSHA   LAKESH 2200   23      40/ 31/ 38 1010.8S
$$

TC  - TEMPERATURE IN CELSIUS
VSB - VISIBILITY IN STATUTE MILES
WCI - WIND CHILL INDEX
HX  - HEAT INDEX




USA.gov is the U.S. government's official web portal to all federal, state and local government web resources and services.